Morogoro, Tanzania

11:59 AM EAT on August 20, 2017 (GMT +0300)
Morogoro

Weather History for HTMG - September, 2013

Change the Weather History Date:

Friday, September 27, 2013

  Actual Average Record
Temperature  
Mean Temperature 80 °F -  
Max Temperature 94 °F - - ()
Min Temperature 66 °F - - ()
Cooling Degree Days 15    
Growing Degree Days 30 (Base 50)    
Moisture  
Dew Point 62 °F    
Average Humidity 60    
Maximum Humidity 88    
Minimum Humidity 25    
Precipitation  
Precipitation 0.00 in - - ()
Sea Level Pressure  
Sea Level Pressure 29.94 in    
Wind  
Wind Speed 1 mph ()    
Max Wind Speed 17 mph    
Max Gust Speed -    
Visibility 8.8 miles    
Events      
T = Trace of Precipitation, MM = Missing Value Source: Averaged Metar Reports

Daily Weather History Graph

Daily Weather History Graph

Search for Another Location

Airport or City:

Trip Planner

Search our weather history database for the weather conditions in past years. The results will help you decide how hot, cold, wet, or windy it might be!

Date:

Astronomy

Sep. 27, 2013 Rise Set
Actual Time 6:16 AM EAT 6:24 PM EAT
Civil Twilight 5:55 AM EAT 6:45 PM EAT
Nautical Twilight 5:31 AM EAT 7:09 PM EAT
Astronomical Twilight 5:07 AM EAT 7:33 PM EAT
Moon 12:20 AM EAT (9/27) 12:23 PM EAT (9/27)
Length of Visible Light 12h 49m
Length of Day
12h 08m
Waning Gibbous, 48% of the Moon is Illuminated
Sep 27
Waning Gibbous
Oct 5
New
Oct 12
First Quarter
Oct 19
Full
Oct 27
Last Quarter

Hourly Weather History & Observations

Time (EAT) Temp. Heat Index Dew Point Humidity Pressure Visibility Wind Dir Wind Speed Gust Speed Precip Events Conditions
12:00 AM 72 °F - 65 °F 72%  in 19 mi Calm Calm - -  
12:00 AM 71.6 °F - 64.4 °F 78% 29.95 in 6.2 mi Calm Calm - N/A   Clear
1:00 AM 69.8 °F - 64.4 °F 83% 29.95 in 6.2 mi Calm Calm - N/A   Clear
2:00 AM 68.0 °F - 64.4 °F 88% 29.92 in 6.2 mi Calm Calm - N/A   Clear
3:00 AM 73 °F - 65 °F 70%  in 19 mi Calm Calm - -   Partly Cloudy
3:00 AM 66.2 °F - 62.6 °F 88% 29.92 in 6.2 mi Calm Calm - N/A   Partly Cloudy
4:00 AM 66.2 °F - 62.6 °F 88% 29.92 in 6.2 mi Calm Calm - N/A   Partly Cloudy
5:00 AM 66.2 °F - 62.6 °F 88% 29.95 in 6.2 mi Calm Calm - N/A   Partly Cloudy
6:00 AM 84 °F - 62 °F 38%  in 19 mi East 5.8 mph - -   Scattered Clouds
6:00 AM 68.0 °F - 64.4 °F 88% 29.95 in 6.2 mi Calm Calm - N/A   Mostly Cloudy
7:00 AM 69.8 °F - 64.4 °F 83% 29.98 in 6.2 mi Calm Calm - N/A   Mostly Cloudy
8:00 AM 71.6 °F - 64.4 °F 78% 30.01 in 6.2 mi Calm Calm - N/A   Mostly Cloudy
9:00 AM 73.4 °F - 64.4 °F 73% 30.01 in 6.2 mi Calm Calm - N/A   Scattered Clouds
10:00 AM 77.0 °F - 62.6 °F 61% 30.01 in 6.2 mi Calm Calm - N/A   Partly Cloudy
11:00 AM 80.6 °F 81.8 °F 62.6 °F 54% 30.01 in 6.2 mi Calm Calm - N/A   Partly Cloudy
12:00 PM - - - N/A% 29.98 in 6.2 mi East 5.8 mph - N/A   Partly Cloudy
1:00 PM 87.8 °F 87.6 °F 60.8 °F 40% 29.95 in 6.2 mi Calm Calm - N/A   Scattered Clouds
2:00 PM 89.6 °F 89.5 °F 60.8 °F 38% 29.92 in 6.2 mi Calm Calm - N/A   Scattered Clouds
3:00 PM 90 °F - 59 °F 26%  in 19 mi Calm Calm - -   Partly Cloudy
3:00 PM 91.4 °F 90.7 °F 59.0 °F 34% 29.89 in 6.2 mi Calm Calm - N/A   Scattered Clouds
4:00 PM 93.2 °F 92.6 °F 59.0 °F 32% 29.86 in 6.2 mi Calm Calm - N/A   Scattered Clouds
5:00 PM 89.6 °F 89.5 °F 60.8 °F 38% 29.83 in 6.2 mi Calm Calm - N/A   Scattered Clouds
6:00 PM 88 °F - 57 °F 25%  in 19 mi East 17.3 mph - -   Partly Cloudy
6:00 PM 87.8 °F 86.5 °F 57.2 °F 35% 29.86 in 6.2 mi Calm Calm - N/A   Scattered Clouds
7:00 PM 86.0 °F 84.9 °F 57.2 °F 37% 29.89 in 6.2 mi ESE 9.2 mph - N/A   Partly Cloudy
8:00 PM 80.6 °F 82.3 °F 64.4 °F 58% 29.89 in 6.2 mi ESE 11.5 mph - N/A   Partly Cloudy
9:00 PM 78 °F - 64 °F 53%  in 19 mi ESE 9.2 mph - -   Scattered Clouds
9:00 PM 78.8 °F - 64.4 °F 61% 29.92 in 6.2 mi ESE 9.2 mph - N/A   Partly Cloudy
10:00 PM 77.0 °F - 64.4 °F 65% 29.92 in 6.2 mi Calm Calm - N/A   Partly Cloudy
11:00 PM 77.0 °F - 64.4 °F 65% 29.95 in 6.2 mi Calm Calm - N/A   Partly Cloudy